Torna al catalogo

COSMOS 1579 COOLANT

AttivoLEO
NORAD 26646·DEBRIS·🇷🇺 Russia

Lanciato Jun 29, 1984 da Baikonur Cosmodrome

Loading…

Prossimi Passaggi (prossime 24 ore)

TLE

In scadenzaSource: Space-Track

Epoca: Sep 9, 2026, 18:43 UTC

1 26646U 84069T   26252.78027968  .00000030  00000-0  93643-4 0  9997
2 26646  65.0472  28.0176 0049369 329.6535  30.1673 13.91598394672487

Traccia COSMOS 1579 COOLANT in tempo reale con AllMySat

Download on the App Store